EW3291 Weather Reports


Display with metric or nautical units.
time (UTC)temp
F
wind
direction
speed
MPH
gust
MPH
rain 1hr
in
rain 24hr
in
rain mn
in
humidity
%
barometer
mb
20190525035316 72 350 0.0 0.0 0.00 0.00 0.00 79 1019.3
20190525034824 73 350 0.0 0.0 0.00 0.00 0.00 79 1019.2
20190525034315 73 350 0.0 1.0 0.00 0.00 0.00 79 1019.2
20190525033810 73 350 0.0 0.0 0.00 0.00 0.00 78 1019.1
20190525033301 73 350 0.0 0.0 0.00 0.00 0.00 77 1019.0
20190525032812 74 350 0.0 0.0 0.00 0.00 0.00 77 1018.8
20190525032303 74 350 0.0 0.0 0.00 0.00 0.00 76 1018.8
20190525031815 74 350 0.0 0.0 0.00 0.00 0.00 76 1018.8
20190525031305 74 350 0.0 0.0 0.00 0.00 0.00 76 1018.8
20190525030757 74 350 0.0 0.0 0.00 0.00 0.00 76 1018.7
20190525030308 74 350 0.0 0.0 0.00 0.00 0.00 75 1018.7
20190525025804 75 350 0.0 1.0 0.00 0.00 0.00 75 1018.6
20190525025315 75 350 0.0 1.0 0.00 0.00 0.00 75 1018.4
20190525024807 75 350 0.0 1.0 0.00 0.00 0.00 75 1018.3
20190525024259 75 43 0.0 0.0 0.00 0.00 0.00 75 1018.3
20190525023810 75 88 0.0 0.0 0.00 0.00 0.00 75 1018.2
20190525023301 75 88 0.0 0.0 0.00 0.00 0.00 74 1018.0
20190525022813 75 88 0.0 0.0 0.00 0.00 0.00 73 1018.0
20190525022305 76 88 0.0 0.0 0.00 0.00 0.00 73 1018.0
20190525021801 76 88 0.0 0.0 0.00 0.00 0.00 72 1018.0
20190525021313 76 88 0.0 0.0 0.00 0.00 0.00 72 1018.0
20190525020805 76 88 0.0 0.0 0.00 0.00 0.00 72 1017.9
20190525020316 77 88 0.0 0.0 0.00 0.00 0.00 71 1017.9
20190525015808 77 88 0.0 0.0 0.00 0.00 0.00 70 1017.9
20190525015258 78 88 0.0 0.0 0.00 0.00 0.00 68 1018.0
20190525014810 78 127 0.0 0.0 0.00 0.00 0.00 67 1018.1
20190525014302 78 127 0.0 0.0 0.00 0.00 0.00 67 1018.1
20190525013814 78 127 0.0 0.0 0.00 0.00 0.00 66 1018.0
20190525013310 79 127 0.0 0.0 0.00 0.00 0.00 65 1018.0
20190525012802 79 127 0.0 0.0 0.00 0.00 0.00 64 1017.9
20190525012314 79 127 0.0 0.0 0.00 0.00 0.00 63 1018.0
20190525011805 80 127 0.0 0.0 0.00 0.00 0.00 63 1018.1
20190525011317 80 127 0.0 0.0 0.00 0.00 0.00 63 1018.0
20190525010808 80 127 0.0 0.0 0.00 0.00 0.00 62 1017.9
20190525010258 81 127 0.0 0.0 0.00 0.00 0.00 61 1017.8
20190525005809 81 127 0.0 2.0 0.00 0.00 0.00 60 1018.0
20190525005305 81 127 0.0 1.0 0.00 0.00 0.00 59 1017.9
20190525004817 82 138 0.0 0.0 0.00 0.00 0.00 58 1018.0
20190525004309 82 180 0.0 1.0 0.00 0.00 0.00 58 1018.0
20190525003801 82 166 0.0 2.0 0.00 0.00 0.00 57 1018.0
20190525003313 82 166 1.0 5.0 0.00 0.00 0.00 57 1018.1
20190525002804 83 126 2.0 5.0 0.00 0.00 0.00 56 1018.0
20190525002317 83 104 3.0 7.0 0.00 0.00 0.00 55 1018.0
20190525001808 83 151 4.0 7.0 0.00 0.00 0.00 54 1018.1
20190525001303 84 145 3.0 7.0 0.00 0.00 0.00 55 1018.2
20190525000815 84 217 3.0 6.0 0.00 0.00 0.00 54 1018.3
20190525000307 84 199 3.0 6.0 0.00 0.00 0.00 54 1018.4
20190524235818 84 170 3.0 6.0 0.00 0.00 0.00 54 1018.4
20190524235310 85 153 3.0 6.0 0.00 0.00 0.00 53 1018.5
20190524234801 85 161 4.0 6.0 0.00 0.00 0.00 53 1018.5
20190524234313 85 159 3.0 6.0 0.00 0.00 0.00 52 1018.6
20190524233805 85 117 3.0 8.0 0.00 0.00 0.00 52 1018.6
20190524233300 85 151 4.0 9.0 0.00 0.00 0.00 51 1018.7
20190524232812 85 148 3.0 10.0 0.00 0.00 0.00 51 1018.8
20190524232303 86 106 5.0 10.0 0.00 0.00 0.00 50 1018.9
20190524231815 86 226 4.0 9.0 0.00 0.00 0.00 50 1019.0
20190524231306 86 170 3.0 11.0 0.00 0.00 0.00 50 1019.1
20190524230759 86 136 5.0 11.0 0.00 0.00 0.00 49 1019.2
20190524230311 86 135 2.0 9.0 0.00 0.00 0.00 49 1019.3
20190524225801 87 153 4.0 9.0 0.00 0.00 0.00 48 1019.3
20190524225317 87 119 4.0 7.0 0.00 0.00 0.00 48 1019.3
20190524224807 87 170 2.0 7.0 0.00 0.00 0.00 49 1019.4
20190524224259 87 170 2.0 9.0 0.00 0.00 0.00 49 1019.3
20190524223810 87 152 4.0 9.0 0.00 0.00 0.00 48 1019.4
20190524223301 87 166 4.0 8.0 0.00 0.00 0.00 48 1019.6
20190524222814 87 187 0.0 9.0 0.00 0.00 0.00 49 1019.6
20190524222305 87 124 2.0 9.0 0.00 0.00 0.00 49 1019.7
20190524221816 87 108 2.0 11.0 0.00 0.00 0.00 52 1019.7
20190524221311 87 236 3.0 11.0 0.00 0.00 0.00 56 1019.7
20190524220801 87 155 0.0 2.0 0.00 0.00 0.00 58 1019.9
20190524220313 86 341 0.0 6.0 0.00 0.00 0.00 58 1019.9
20190524215805 86 90 2.0 6.0 0.00 0.00 0.00 58 1020.1
20190524215317 87 144 0.0 2.0 0.00 0.00 0.00 58 1020.2
20190524214808 87 153 0.0 5.0 0.00 0.00 0.00 57 1020.3
20190524214319 87 54 1.0 5.0 0.00 0.00 0.00 58 1020.3
20190524213810 87 116 1.0 4.0 0.00 0.00 0.00 58 1020.3
20190524213306 87 29 1.0 4.0 0.00 0.00 0.00 58 1020.5
20190524212819 87 105 2.0 4.0 0.00 0.00 0.00 59 1020.5
20190524212311 88 59 1.0 3.0 0.00 0.00 0.00 58 1020.7
20190524211803 87 17 0.0 4.0 0.00 0.00 0.00 59 1020.8
20190524211315 87 1 1.0 4.0 0.00 0.00 0.00 59 1020.9
20190524210807 87 44 0.0 6.0 0.00 0.00 0.00 58 1020.9
20190524210319 87 38 2.0 6.0 0.00 0.00 0.00 58 1020.9
20190524205811 87 353 2.0 6.0 0.00 0.00 0.00 58 1020.8
20190524205306 88 86 1.0 7.0 0.00 0.00 0.00 57 1021.0
20190524204818 88 53 2.0 5.0 0.00 0.00 0.00 58 1021.0
20190524204309 87 301 1.0 8.0 0.00 0.00 0.00 58 1021.0
20190524203759 87 334 5.0 9.0 0.00 0.00 0.00 58 1021.0
20190524203310 87 319 3.0 8.0 0.00 0.00 0.00 59 1021.1
20190524202801 86 274 4.0 5.0 0.00 0.00 0.00 61 1021.1
20190524202312 85 161 0.0 3.0 0.00 0.00 0.00 62 1021.1
20190524201804 85 226 0.0 5.0 0.00 0.00 0.00 61 1021.1
20190524201300 86 111 3.0 5.0 0.00 0.00 0.00 60 1021.2
20190524200811 86 115 2.0 4.0 0.00 0.00 0.00 60 1021.1
20190524200302 86 59 1.0 5.0 0.00 0.00 0.00 60 1021.1
20190524195813 86 117 3.0 5.0 0.00 0.00 0.00 59 1021.2
20190524195305 86 68 1.0 4.0 0.00 0.00 0.00 58 1021.1
20190524194817 86 54 1.0 4.0 0.00 0.00 0.00 58 1021.1
20190524194307 87 95 2.0 4.0 0.00 0.00 0.00 57 1021.2
20190524193819 87 64 1.0 4.0 0.00 0.00 0.00 58 1021.2
20190524193310 87 7 2.0 4.0 0.00 0.00 0.00 58 1021.3
20190524192806 86 36 2.0 4.0 0.00 0.00 0.00 58 1021.1
20190524192318 86 16 0.0 6.0 0.00 0.00 0.00 59 1021.3
20190524191810 86 71 3.0 6.0 0.00 0.00 0.00 57 1021.3
20190524191300 87 67 3.0 6.0 0.00 0.00 0.00 57 1021.4
20190524190812 86 328 1.0 6.0 0.00 0.00 0.00 57 1021.3
20190524190305 86 13 3.0 6.0 0.00 0.00 0.00 57 1021.3
20190524185816 86 305 3.0 6.0 0.00 0.00 0.00 57 1021.5
20190524185309 86 27 1.0 4.0 0.00 0.00 0.00 57 1021.5
20190524184804 86 34 1.0 6.0 0.00 0.00 0.00 58 1021.5
20190524184315 86 31 2.0 6.0 0.00 0.00 0.00 58 1021.6
20190524183807 85 20 1.0 6.0 0.00 0.00 0.00 59 1021.6
20190524183318 85 342 3.0 6.0 0.00 0.00 0.00 59 1021.6
20190524182809 85 42 1.0 4.0 0.00 0.00 0.00 60 1021.4
20190524182300 84 90 1.0 5.0 0.00 0.00 0.00 61 1021.5
20190524181811 83 350 2.0 5.0 0.00 0.00 0.00 61 1021.5
20190524181302 83 28 1.0 6.0 0.00 0.00 0.00 61 1021.5
20190524180817 83 74 2.0 7.0 0.00 0.00 0.00 61 1021.5
20190524180309 82 78 3.0 7.0 0.00 0.00 0.00 62 1021.6
20190524175800 82 45 4.0 7.0 0.00 0.00 0.00 62 1021.7
20190524175312 81 34 4.0 6.0 0.00 0.00 0.00 63 1021.6
20190524174803 81 20 2.0 7.0 0.00 0.00 0.00 64 1021.6
20190524174315 81 47 4.0 7.0 0.00 0.00 0.00 63 1021.7
20190524173807 81 99 4.0 7.0 0.00 0.00 0.00 64 1021.7
20190524173319 81 13 3.0 7.0 0.00 0.00 0.00 65 1021.6
20190524172814 80 58 2.0 7.0 0.00 0.00 0.00 65 1021.7
20190524172306 80 342 3.0 8.0 0.00 0.00 0.00 66 1021.8
20190524171818 79 32 4.0 9.0 0.00 0.00 0.00 66 1021.8
20190524171309 79 22 4.0 11.0 0.00 0.00 0.00 67 1021.8
20190524170801 79 338 5.0 11.0 0.00 0.00 0.00 66 1021.8
20190524170313 79 334 4.0 10.0 0.00 0.00 0.00 65 1021.8
20190524165804 80 330 5.0 10.0 0.00 0.00 0.00 63 1021.8
20190524165315 81 338 5.0 13.0 0.00 0.00 0.00 62 1021.8
20190524164811 82 325 7.0 13.0 0.00 0.00 0.00 65 1021.8
20190524164302 82 230 2.0 9.0 0.00 0.00 0.00 74 1021.6
20190524163814 82 126 5.0 9.0 0.00 0.00 0.00 74 1021.5
20190524163306 82 129 4.0 9.0 0.00 0.00 0.00 74 1021.5
20190524162818 82 180 4.0 9.0 0.00 0.00 0.00 73 1021.4
20190524162309 82 187 6.0 10.0 0.00 0.00 0.00 73 1021.4
20190524161820 82 195 6.0 9.0 0.00 0.00 0.00 73 1021.5
20190524161311 82 193 4.0 8.0 0.00 0.00 0.00 74 1021.5
20190524160807 81 204 3.0 8.0 0.00 0.00 0.00 74 1021.4
20190524160318 81 126 4.0 8.0 0.00 0.00 0.00 75 1021.4
20190524155811 81 170 5.0 8.0 0.00 0.00 0.00 75 1021.5
20190524155303 80 151 4.0 7.0 0.00 0.00 0.00 75 1021.5
20190524154814 79 142 3.0 9.0 0.00 0.00 0.00 76 1021.5
20190524154306 79 190 1.0 5.0 0.00 0.00 0.00 76 1021.6
20190524153819 78 126 3.0 5.0 0.00 0.00 0.00 76 1021.7
20190524153310 78 121 3.0 7.0 0.00 0.00 0.00 76 1021.7
20190524152805 78 118 2.0 7.0 0.00 0.00 0.00 76 1021.7
20190524152317 77 113 5.0 8.0 0.00 0.00 0.00 77 1021.6
20190524151807 77 166 3.0 10.0 0.00 0.00 0.00 77 1021.6
20190524151319 76 132 6.0 9.0 0.00 0.00 0.00 77 1021.6
20190524150811 76 142 5.0 8.0 0.00 0.00 0.00 77 1021.6
20190524150302 75 115 4.0 8.0 0.00 0.00 0.00 76 1021.8
20190524145815 75 124 3.0 5.0 0.00 0.00 0.00 76 1021.9
20190524145327 75 127 2.0 5.0 0.00 0.00 0.00 76 1021.9
20190524144806 75 186 2.0 5.0 0.00 0.00 0.00 76 1022.1
20190524144322 74 146 2.0 4.0 0.00 0.00 0.00 77 1022.1
20190524143812 73 219 1.0 3.0 0.00 0.00 0.00 79 1022.1
20190524143303 73 125 1.0 4.0 0.00 0.00 0.00 79 1022.0
20190524142814 72 118 2.0 4.0 0.00 0.00 0.00 80 1021.8
20190524142305 72 130 3.0 4.0 0.00 0.00 0.00 80 1021.9
20190524141817 72 130 2.0 4.0 0.00 0.00 0.00 80 1022.0
20190524141308 72 159 3.0 4.0 0.00 0.00 0.00 80 1022.0
20190524140820 72 128 2.0 3.0 0.00 0.00 0.00 81 1021.9
20190524140316 71 130 1.0 3.0 0.00 0.00 0.00 82 1022.0
20190524135808 71 135 2.0 3.0 0.00 0.00 0.00 82 1022.0
20190524135319 71 238 0.0 2.0 0.00 0.00 0.00 83 1022.0
20190524134810 70 238 0.0 3.0 0.00 0.00 0.00 84 1022.0
20190524134322 70 238 2.0 3.0 0.00 0.00 0.00 85 1022.2
20190524133814 70 120 1.0 6.0 0.00 0.00 0.00 86 1021.9
20190524133304 70 120 3.0 7.0 0.00 0.00 0.00 87 1021.9
20190524132815 69 170 4.0 6.0 0.00 0.00 0.00 90 1021.9
20190524132310 69 161 3.0 4.0 0.00 0.00 0.00 93 1022.0
20190524131822 68 101 3.0 4.0 0.00 0.00 0.00 94 1021.9
20190524131314 68 123 1.0 3.0 0.00 0.00 0.00 95 1021.9
20190524130805 68 123 1.0 3.0 0.00 0.00 0.00 94 1022.1
20190524130317 67 123 2.0 4.0 0.00 0.00 0.00 94 1022.2
20190524125809 67 132 3.0 5.0 0.00 0.00 0.00 94 1022.2
20190524125320 67 144 3.0 5.0 0.00 0.00 0.00 94 1022.3
20190524124812 67 96 1.0 3.0 0.00 0.13 0.00 94 1022.2
20190524124306 67 90 0.0 3.0 0.00 0.13 0.00 95 1022.3
20190524123818 67 90 1.0 2.0 0.00 0.13 0.00 95 1022.4
20190524123309 67 90 0.0 2.0 0.00 0.13 0.00 96 1022.5
20190524122821 67 157 0.0 1.0 0.00 0.13 0.00 97 1022.5
20190524122313 66 157 0.0 1.0 0.00 0.13 0.00 97 1022.5
20190524121805 66 157 0.0 0.0 0.00 0.13 0.00 97 1022.6
20190524121317 66 157 0.0 0.0 0.00 0.13 0.00 97 1022.6
20190524120808 66 157 0.0 0.0 0.00 0.13 0.00 97 1022.6
20190524120304 65 157 0.0 0.0 0.00 0.13 0.00 97 1022.5
20190524115816 65 157 0.0 2.0 0.00 0.13 0.00 97 1022.3
20190524115306 65 157 0.0 2.0 0.00 0.13 0.00 97 1022.3
20190524114817 65 157 1.0 2.0 0.00 0.18 0.00 97 1022.2
20190524114308 65 157 0.0 0.0 0.00 0.18 0.00 97 1022.2
20190524113819 64 157 0.0 1.0 0.00 0.18 0.00 97 1022.1
20190524113310 64 157 0.0 2.0 0.00 0.18 0.00 97 1022.1
20190524112823 64 157 1.0 3.0 0.00 0.18 0.00 97 1022.0
20190524112315 64 157 2.0 3.0 0.00 0.18 0.00 96 1022.0
20190524111810 64 157 2.0 3.0 0.00 0.18 0.00 96 1022.0
20190524111322 64 157 1.0 3.0 0.00 0.18 0.00 96 1022.0
20190524110813 65 157 2.0 3.0 0.00 0.18 0.00 96 1022.0
20190524110305 65 157 0.0 1.0 0.00 0.18 0.00 96 1021.8
20190524105817 65 157 0.0 0.0 0.00 0.18 0.00 96 1021.9
20190524105309 65 157 0.0 0.0 0.00 0.18 0.00 96 1021.8
20190524104821 65 157 0.0 0.0 0.00 0.18 0.00 96 1021.8
20190524104312 65 157 0.0 0.0 0.00 0.18 0.00 96 1021.6
20190524103807 65 157 0.0 1.0 0.00 0.18 0.00 96 1021.6
20190524103318 65 157 0.0 1.0 0.00 0.18 0.00 96 1021.5
20190524102809 65 157 0.0 1.0 0.00 0.18 0.00 96 1021.6
20190524102322 65 157 0.0 0.0 0.00 0.18 0.00 96 1021.5
20190524101815 65 157 0.0 0.0 0.00 0.18 0.00 96 1021.5
20190524101307 65 157 0.0 0.0 0.00 0.18 0.00 96 1021.6
20190524100818 65 157 0.0 0.0 0.00 0.18 0.00 96 1021.5
20190524100309 65 157 0.0 0.0 0.00 0.18 0.00 95 1021.4
20190524095805 65 157 0.0 1.0 0.00 0.18 0.00 95 1021.5
20190524095318 65 157 0.0 1.0 0.00 0.18 0.00 95 1021.5
20190524094809 65 157 0.0 1.0 0.00 0.18 0.00 95 1021.5
20190524094320 65 157 0.0 0.0 0.00 0.18 0.00 95 1021.5
20190524093811 65 157 0.0 2.0 0.00 0.18 0.00 95 1021.5
20190524093322 66 157 1.0 2.0 0.00 0.18 0.00 94 1021.4
20190524092814 66 157 0.0 0.0 0.00 0.18 0.00 95 1021.5
20190524092306 66 157 0.0 0.0 0.00 0.18 0.00 95 1021.4
20190524091822 66 153 0.0 1.0 0.00 0.18 0.00 95 1021.5
20190524091314 66 153 0.0 2.0 0.00 0.18 0.00 95 1021.5
20190524090806 66 153 1.0 2.0 0.00 0.18 0.00 95 1021.3
20190524090319 66 153 0.0 1.0 0.00 0.18 0.00 95 1021.4
20190524085810 66 153 0.0 0.0 0.00 0.18 0.00 95 1021.4
20190524085321 66 153 0.0 0.0 0.00 0.18 0.00 96 1021.3
20190524084812 66 153 0.0 0.0 0.00 0.18 0.00 95 1021.3
20190524084323 66 153 0.0 0.0 0.00 0.18 0.00 96 1021.2
20190524083818 66 153 0.0 0.0 0.00 0.18 0.00 95 1021.3
20190524083309 66 153 0.0 0.0 0.00 0.18 0.00 95 1021.3
20190524082821 66 153 0.0 0.0 0.00 0.18 0.00 95 1021.2
20190524082312 66 153 0.0 2.0 0.00 0.18 0.00 95 1021.0
20190524081804 66 153 0.0 3.0 0.00 0.18 0.00 95 1021.1
20190524081317 66 153 1.0 3.0 0.00 0.18 0.00 95 1021.0
20190524080809 66 153 2.0 2.0 0.00 0.18 0.00 94 1020.9
20190524080320 67 153 1.0 2.0 0.00 0.18 0.00 94 1020.8
20190524075815 67 153 0.0 0.0 0.00 0.18 0.00 94 1020.6
20190524075307 67 153 0.0 0.0 0.00 0.18 0.00 94 1020.7
20190524074819 67 153 0.0 0.0 0.00 0.18 0.00 94 1020.7
20190524074310 67 153 0.0 0.0 0.00 0.18 0.00 94 1020.7
20190524073822 67 153 0.0 0.0 0.00 0.18 0.00 94 1020.7
20190524073314 67 153 0.0 0.0 0.00 0.18 0.00 94 1020.7
20190524072806 67 153 0.0 0.0 0.00 0.18 0.00 94 1020.8
20190524072318 68 170 0.0 0.0 0.00 0.18 0.00 94 1020.7
20190524071814 68 170 0.0 0.0 0.00 0.18 0.00 95 1020.9
20190524071305 68 170 0.0 0.0 0.00 0.18 0.00 95 1020.9
20190524070818 68 170 0.0 0.0 0.00 0.18 0.00 95 1020.9
20190524070310 67 170 0.0 0.0 0.00 0.18 0.00 95 1020.9
20190524065821 67 170 0.0 0.0 0.00 0.18 0.00 95 1020.9
20190524065314 67 170 0.0 0.0 0.00 0.18 0.00 94 1020.9
20190524064825 67 170 0.0 0.0 0.00 0.19 0.18 94 1020.9
20190524064315 67 170 0.0 0.0 0.00 0.19 0.18 94 1021.0
20190524063810 67 170 0.0 0.0 0.00 0.19 0.18 94 1021.1
20190524063321 67 170 0.0 0.0 0.00 0.19 0.18 94 1021.1
20190524062813 67 170 0.0 0.0 0.00 0.19 0.18 94 1021.0
20190524062324 67 170 0.0 0.0 0.00 0.19 0.18 93 1021.0
20190524061830 68 170 0.0 0.0 0.00 0.19 0.18 93 1021.0
20190524061308 68 309 0.0 0.0 0.00 0.19 0.18 92 1020.8
20190524060819 68 309 0.0 0.0 0.00 0.19 0.18 92 1020.8
20190524060311 69 309 0.0 0.0 0.00 0.19 0.18 93 1020.8
20190524055823 69 309 0.0 0.0 0.00 0.19 0.18 93 1020.8
20190524055319 69 309 0.0 0.0 0.00 0.19 0.18 93 1020.8
20190524054810 69 309 0.0 0.0 0.00 0.19 0.18 93 1020.9
20190524054322 69 309 0.0 0.0 0.00 0.19 0.18 93 1020.9
20190524053813 69 309 0.0 0.0 0.00 0.19 0.18 92 1020.9
20190524053305 69 309 0.0 0.0 0.00 0.19 0.18 92 1021.0
20190524052817 69 309 0.0 0.0 0.00 0.19 0.18 92 1021.0
20190524052309 69 309 0.0 0.0 0.00 0.19 0.18 92 1021.0
20190524051820 69 309 0.0 0.0 0.00 0.19 0.18 92 1020.9
20190524051315 69 309 0.0 1.0 0.00 0.19 0.18 91 1020.9
20190524050806 70 309 0.0 1.0 0.00 0.19 0.18 91 1020.9
20190524050317 70 309 1.0 1.0 0.00 0.19 0.18 90 1020.9
20190524045808 70 309 0.0 1.0 0.00 0.19 0.18 90 1020.9
20190524045321 70 309 0.0 1.0 0.00 0.19 0.18 90 1020.9
20190524044812 70 309 0.0 0.0 0.00 0.19 0.18 90 1020.9
20190524044324 71 309 0.0 1.0 0.00 0.19 0.18 90 1020.9
20190524043815 71 309 0.0 1.0 0.00 0.19 0.18 90 1021.0
20190524043311 71 309 0.0 0.0 0.00 0.19 0.18 91 1021.1
20190524042823 71 309 0.0 0.0 0.00 0.19 0.18 90 1021.0
20190524042315 71 309 0.0 0.0 0.00 0.19 0.18 90 1021.0
20190524041807 71 309 0.0 0.0 0.00 0.19 0.18 89 1021.0
20190524041318 71 309 0.0 0.0 0.00 0.19 0.18 88 1020.9
20190524040809 71 309 0.0 0.0 0.00 0.19 0.18 88 1020.9
20190524040321 72 309 0.0 0.0 0.00 0.19 0.18 88 1020.8
20190524035813 72 309 0.0 0.0 0.00 0.19 0.18 87 1020.8